Location: Unspecified
(35.7250°N, 0.0000°E)
Time: 13:50:26
(UTC+00:00)

Vanguard 2 - Pass Details

Date: 23 June 2019
Orbit: 554 x 2938 km, 32.9° (Epoch: 24 August)

Event Time Altitude Azimuth Distance (km) Brightness Sun altitude
Rises 06:02:35 0° 207° (SSW) 2,735 9.9 13.5°
Reaches altitude 10° 06:05:21 10° 184° (S) 1,944 9.4 14.0°
Maximum altitude 06:08:06 16° 144° (SE) 1,726 9.7 14.6°
Drops below altitude 10° 06:11:21 10° 106° (ESE) 2,377 11.2 15.2°
Sets 06:15:18 0° 87° (E) 3,705 12.6 16.0°
